Location: Hormuz
(27.0871°N, 56.4580°E)
Time: 05:01:37
(UTC+04:30)

X-37B - Pass Details

Date: 24 June 2021
Orbit: 383 x 392 km, 45.0° (Epoch: 01 July)

Event Time Altitude Azimuth Distance (km) Brightness Sun altitude
Exits shadow 04:27:39 30° 290° (WNW) 709 1.6 -16.5°
Maximum altitude 04:28:56 60° 221° (SW) 443 0.5 -16.3°
Drops below altitude 10° 04:32:03 10° 141° (SE) 1,399 3.4 -15.8°
Sets 04:34:07 0° 137° (SE) 2,252 4.5 -15.4°
